Time,TemperatureF,DewpointF,PressureIn,WindDirection,WindDirectionDegrees,WindSpeedMPH,WindSpeedGustMPH,Humidity,HourlyPrecipIn,Conditions,Clouds,dailyrainin,SoftwareType,DateUTC
2013-01-21 00:00:00,37.7,30.5,30.11,SSW,211,0.0,0.0,75,0.00,,,0.00,Wunderground v.1.15,2013-01-21 05:00:00,
2013-01-21 00:05:00,37.6,30.7,30.11,SSW,211,0.0,0.0,76,0.00,,,0.00,Wunderground v.1.15,2013-01-21 05:05:00,
2013-01-21 00:10:00,37.5,30.9,30.11,SSW,211,0.0,0.0,77,0.00,,,0.00,Wunderground v.1.15,2013-01-21 05:10:00,
2013-01-21 00:15:00,37.3,30.7,30.11,SSW,211,0.0,0.0,77,0.00,,,0.00,Wunderground v.1.15,2013-01-21 05:15:00,
2013-01-21 00:20:00,37.2,31.0,30.11,SSW,211,0.0,0.0,78,0.00,,,0.00,Wunderground v.1.15,2013-01-21 05:20:00,
2013-01-21 00:25:00,36.9,30.7,30.10,SSW,211,0.0,0.0,78,0.00,,,0.00,Wunderground v.1.15,2013-01-21 05:25:00,
2013-01-21 00:30:00,36.6,30.4,30.10,SSW,211,0.0,0.0,78,0.00,,,0.00,Wunderground v.1.15,2013-01-21 05:30:00,
2013-01-21 00:35:00,36.5,30.6,30.10,SSW,211,0.0,0.0,79,0.00,,,0.00,Wunderground v.1.15,2013-01-21 05:35:00,
2013-01-21 00:40:00,36.3,30.7,30.10,SSW,211,0.0,0.0,80,0.00,,,0.00,Wunderground v.1.15,2013-01-21 05:40:00,
2013-01-21 00:45:00,36.2,30.9,30.09,SSW,211,0.0,0.0,81,0.00,,,0.00,Wunderground v.1.15,2013-01-21 05:45:00,
2013-01-21 00:50:00,36.1,30.8,30.10,SSW,211,0.0,0.0,81,0.00,,,0.00,Wunderground v.1.15,2013-01-21 05:50:00,
2013-01-21 01:00:00,36.0,31.3,30.10,SSW,211,0.0,0.0,83,0.00,,,0.00,Wunderground v.1.15,2013-01-21 06:00:00,
2013-01-21 01:10:00,35.6,30.9,30.10,SSW,211,0.0,0.0,83,0.00,,,0.00,Wunderground v.1.15,2013-01-21 06:10:00,
2013-01-21 01:15:00,35.5,30.8,30.10,SSW,211,0.0,0.0,83,0.00,,,0.00,Wunderground v.1.15,2013-01-21 06:15:00,
2013-01-21 01:20:00,35.3,30.7,30.10,SSW,211,0.0,0.0,83,0.00,,,0.00,Wunderground v.1.15,2013-01-21 06:20:00,
2013-01-21 01:25:00,35.3,30.7,30.09,SSW,211,0.0,0.0,83,0.00,,,0.00,Wunderground v.1.15,2013-01-21 06:25:00,
2013-01-21 01:30:00,35.2,30.9,30.10,SSW,211,0.0,0.0,84,0.00,,,0.00,Wunderground v.1.15,2013-01-21 06:30:00,
2013-01-21 01:35:00,35.0,30.7,30.10,SSW,211,0.0,0.0,84,0.00,,,0.00,Wunderground v.1.15,2013-01-21 06:35:00,
2013-01-21 01:40:00,34.8,30.5,30.10,SSW,211,0.0,0.0,84,0.00,,,0.00,Wunderground v.1.15,2013-01-21 06:40:00,
2013-01-21 01:45:00,34.5,30.2,30.10,SSW,211,0.0,0.0,84,0.00,,,0.00,Wunderground v.1.15,2013-01-21 06:45:00,
2013-01-21 01:50:00,34.3,30.0,30.10,SSW,211,0.0,0.0,84,0.00,,,0.00,Wunderground v.1.15,2013-01-21 06:50:00,
2013-01-21 01:55:00,34.3,30.0,30.10,SSW,211,0.0,0.0,84,0.00,,,0.00,Wunderground v.1.15,2013-01-21 06:55:00,
2013-01-21 02:00:00,34.2,29.9,30.10,SSW,211,0.0,0.0,84,0.00,,,0.00,Wunderground v.1.15,2013-01-21 07:00:00,
2013-01-21 02:10:00,33.8,29.5,30.10,SSW,211,0.0,0.0,84,0.00,,,0.00,Wunderground v.1.15,2013-01-21 07:10:00,
2013-01-21 02:15:00,33.5,29.5,30.10,SSW,211,0.0,0.0,85,0.00,,,0.00,Wunderground v.1.15,2013-01-21 07:15:00,
2013-01-21 02:20:00,33.3,29.3,30.10,SSW,211,0.0,0.0,85,0.00,,,0.00,Wunderground v.1.15,2013-01-21 07:20:00,
2013-01-21 02:30:00,33.0,29.3,30.10,SSW,211,0.0,0.0,86,0.00,,,0.00,Wunderground v.1.15,2013-01-21 07:30:00,
2013-01-21 02:35:00,32.9,29.2,30.10,SSW,211,0.0,0.0,86,0.00,,,0.00,Wunderground v.1.15,2013-01-21 07:35:00,
2013-01-21 02:40:00,32.7,29.0,30.10,SSW,211,0.0,0.0,86,0.00,,,0.00,Wunderground v.1.15,2013-01-21 07:40:00,
2013-01-21 02:45:00,32.6,29.2,30.10,SSW,211,0.0,0.0,87,0.00,,,0.00,Wunderground v.1.15,2013-01-21 07:45:00,
2013-01-21 02:50:00,32.6,29.2,30.10,SSW,211,0.0,0.0,87,0.00,,,0.00,Wunderground v.1.15,2013-01-21 07:50:00,
2013-01-21 02:55:00,32.4,29.0,30.10,SSW,211,0.0,0.0,87,0.00,,,0.00,Wunderground v.1.15,2013-01-21 07:55:00,
2013-01-21 03:00:00,32.2,28.8,30.10,SSW,211,0.0,0.0,87,0.00,,,0.00,Wunderground v.1.15,2013-01-21 08:00:00,
2013-01-21 03:10:00,32.0,28.8,30.10,SSW,211,0.0,0.0,88,0.00,,,0.00,Wunderground v.1.15,2013-01-21 08:10:00,
2013-01-21 03:20:00,31.9,29.0,30.10,SSW,211,0.0,0.0,89,0.00,,,0.00,Wunderground v.1.15,2013-01-21 08:20:00,
2013-01-21 03:25:00,31.7,28.8,30.10,SSW,211,0.0,0.0,89,0.00,,,0.00,Wunderground v.1.15,2013-01-21 08:25:00,
2013-01-21 03:30:00,31.6,28.7,30.10,SSW,211,0.0,0.0,89,0.00,,,0.00,Wunderground v.1.15,2013-01-21 08:30:00,
2013-01-21 03:35:00,31.5,28.6,30.10,SSW,211,0.0,0.0,89,0.00,,,0.00,Wunderground v.1.15,2013-01-21 08:35:00,
2013-01-21 03:40:00,31.4,28.8,30.10,SSW,211,0.0,0.0,90,0.00,,,0.00,Wunderground v.1.15,2013-01-21 08:40:00,
2013-01-21 03:50:00,31.2,28.3,30.09,SSW,211,0.0,0.0,89,0.00,,,0.00,Wunderground v.1.15,2013-01-21 08:50:00,
2013-01-21 03:55:00,31.1,28.5,30.09,SSW,211,0.0,0.0,90,0.00,,,0.00,Wunderground v.1.15,2013-01-21 08:55:00,
2013-01-21 04:00:00,31.0,28.4,30.09,SSW,211,0.0,0.0,90,0.00,,,0.00,Wunderground v.1.15,2013-01-21 09:00:00,
2013-01-21 04:05:00,31.0,28.4,30.09,SSW,211,0.0,0.0,90,0.00,,,0.00,Wunderground v.1.15,2013-01-21 09:05:00,
2013-01-21 04:10:00,30.9,28.3,30.09,SSW,211,0.0,0.0,90,0.00,,,0.00,Wunderground v.1.15,2013-01-21 09:10:00,
2013-01-21 04:15:00,30.8,28.2,30.09,SSW,211,0.0,0.0,90,0.00,,,0.00,Wunderground v.1.15,2013-01-21 09:15:00,
2013-01-21 04:20:00,30.7,28.1,30.09,SSW,211,0.0,0.0,90,0.00,,,0.00,Wunderground v.1.15,2013-01-21 09:20:00,
2013-01-21 04:30:00,30.7,28.4,30.09,SSW,211,0.0,0.0,91,0.00,,,0.00,Wunderground v.1.15,2013-01-21 09:30:00,
2013-01-21 04:35:00,30.7,28.4,30.09,SSW,211,0.0,0.0,91,0.00,,,0.00,Wunderground v.1.15,2013-01-21 09:35:00,
2013-01-21 04:40:00,30.6,28.3,30.09,SSW,211,0.0,0.0,91,0.00,,,0.00,Wunderground v.1.15,2013-01-21 09:40:00,
2013-01-21 04:45:00,30.5,28.2,30.09,SSW,211,0.0,0.0,91,0.00,,,0.00,Wunderground v.1.15,2013-01-21 09:45:00,
2013-01-21 04:50:00,30.4,28.1,30.08,SSW,211,0.0,0.0,91,0.00,,,0.00,Wunderground v.1.15,2013-01-21 09:50:00,
2013-01-21 04:55:00,30.3,28.0,30.09,SSW,211,0.0,0.0,91,0.00,,,0.00,Wunderground v.1.15,2013-01-21 09:55:00,
2013-01-21 05:00:00,30.3,28.0,30.08,SSW,211,0.0,0.0,91,0.00,,,0.00,Wunderground v.1.15,2013-01-21 10:00:00,
2013-01-21 05:05:00,30.2,27.9,30.08,SSW,211,0.0,0.0,91,0.00,,,0.00,Wunderground v.1.15,2013-01-21 10:05:00,
2013-01-21 05:10:00,30.2,28.2,30.09,SSW,211,0.0,0.0,92,0.00,,,0.00,Wunderground v.1.15,2013-01-21 10:10:00,
2013-01-21 05:15:00,30.2,28.2,30.09,SSW,211,0.0,0.0,92,0.00,,,0.00,Wunderground v.1.15,2013-01-21 10:15:00,
2013-01-21 05:20:00,30.1,28.1,30.09,SSW,211,0.0,0.0,92,0.00,,,0.00,Wunderground v.1.15,2013-01-21 10:20:00,
2013-01-21 05:25:00,30.0,28.0,30.09,SSW,211,0.0,0.0,92,0.00,,,0.00,Wunderground v.1.15,2013-01-21 10:25:00,
2013-01-21 05:30:00,29.9,27.9,30.09,SSW,211,0.0,0.0,92,0.00,,,0.00,Wunderground v.1.15,2013-01-21 10:30:00,
2013-01-21 05:40:00,29.7,27.7,30.09,SSW,211,0.0,0.0,92,0.00,,,0.00,Wunderground v.1.15,2013-01-21 10:40:00,
2013-01-21 05:45:00,29.7,27.7,30.09,SSW,211,0.0,0.0,92,0.00,,,0.00,Wunderground v.1.15,2013-01-21 10:45:00,
2013-01-21 05:50:00,29.6,27.6,30.09,SSW,211,0.0,0.0,92,0.00,,,0.00,Wunderground v.1.15,2013-01-21 10:50:00,
2013-01-21 05:55:00,29.5,27.5,30.09,SSW,211,0.0,0.0,92,0.00,,,0.00,Wunderground v.1.15,2013-01-21 10:55:00,
2013-01-21 06:00:00,29.5,27.7,30.09,SSW,211,0.0,0.0,93,0.00,,,0.00,Wunderground v.1.15,2013-01-21 11:00:00,
2013-01-21 06:05:00,29.4,27.4,30.09,SSW,211,0.0,0.0,92,0.00,,,0.00,Wunderground v.1.15,2013-01-21 11:05:00,
2013-01-21 06:10:00,29.4,27.6,30.09,SSW,211,0.0,0.0,93,0.00,,,0.00,Wunderground v.1.15,2013-01-21 11:10:00,
2013-01-21 06:20:00,29.3,27.5,30.09,SSW,211,0.0,0.0,93,0.00,,,0.00,Wunderground v.1.15,2013-01-21 11:20:00,
2013-01-21 06:25:00,29.3,27.5,30.09,SSW,211,0.0,0.0,93,0.00,,,0.00,Wunderground v.1.15,2013-01-21 11:25:00,
2013-01-21 06:30:00,29.2,27.4,30.09,SSW,211,0.0,0.0,93,0.00,,,0.00,Wunderground v.1.15,2013-01-21 11:30:00,
2013-01-21 06:35:00,29.2,27.4,30.08,SSW,211,0.0,0.0,93,0.00,,,0.00,Wunderground v.1.15,2013-01-21 11:35:00,
2013-01-21 06:40:00,29.1,27.3,30.08,SSW,211,0.0,0.0,93,0.00,,,0.00,Wunderground v.1.15,2013-01-21 11:40:00,
2013-01-21 06:45:00,29.1,27.3,30.08,SSW,211,0.0,0.0,93,0.00,,,0.00,Wunderground v.1.15,2013-01-21 11:45:00,
2013-01-21 06:50:00,29.1,27.3,30.09,SSW,211,0.0,0.0,93,0.00,,,0.00,Wunderground v.1.15,2013-01-21 11:50:00,
2013-01-21 06:55:00,29.0,27.2,30.09,SSW,211,0.0,0.0,93,0.00,,,0.00,Wunderground v.1.15,2013-01-21 11:55:00,
2013-01-21 07:00:00,29.0,27.2,30.09,SSW,211,0.0,0.0,93,0.00,,,0.00,Wunderground v.1.15,2013-01-21 12:00:00,
2013-01-21 07:05:00,29.0,27.5,30.09,SSW,211,0.0,0.0,94,0.00,,,0.00,Wunderground v.1.15,2013-01-21 12:05:00,
2013-01-21 07:10:00,29.0,27.5,30.09,SSW,211,0.0,0.0,94,0.00,,,0.00,Wunderground v.1.15,2013-01-21 12:10:00,
2013-01-21 07:15:00,29.0,27.5,30.09,SSW,211,0.0,0.0,94,0.00,,,0.00,Wunderground v.1.15,2013-01-21 12:15:00,
2013-01-21 07:20:00,28.9,27.4,30.09,SSW,211,0.0,0.0,94,0.00,,,0.00,Wunderground v.1.15,2013-01-21 12:20:00,
2013-01-21 07:25:00,28.9,27.1,30.09,SSW,211,0.0,0.0,93,0.00,,,0.00,Wunderground v.1.15,2013-01-21 12:25:00,
2013-01-21 07:30:00,28.9,27.1,30.08,SSW,211,0.0,0.0,93,0.00,,,0.00,Wunderground v.1.15,2013-01-21 12:30:00,
2013-01-21 07:40:00,28.8,27.3,30.08,SSW,211,0.0,0.0,94,0.00,,,0.00,Wunderground v.1.15,2013-01-21 12:40:00,
2013-01-21 07:45:00,28.9,27.4,30.09,SSW,211,0.0,0.0,94,0.00,,,0.00,Wunderground v.1.15,2013-01-21 12:45:00,
2013-01-21 07:50:00,28.9,27.4,30.09,SSW,211,0.0,0.0,94,0.00,,,0.00,Wunderground v.1.15,2013-01-21 12:50:00,
2013-01-21 07:55:00,28.8,27.3,30.09,SSW,211,0.0,0.0,94,0.00,,,0.00,Wunderground v.1.15,2013-01-21 12:55:00,
2013-01-21 08:00:00,28.9,27.4,30.08,SSW,211,0.0,0.0,94,0.00,,,0.00,Wunderground v.1.15,2013-01-21 13:00:00,
2013-01-21 08:05:00,29.1,27.6,30.09,SSW,211,0.0,0.0,94,0.00,,,0.00,Wunderground v.1.15,2013-01-21 13:05:00,
2013-01-21 08:10:00,29.2,27.7,30.09,SSW,211,0.0,0.0,94,0.00,,,0.00,Wunderground v.1.15,2013-01-21 13:10:00,
2013-01-21 08:15:00,29.4,27.9,30.09,SSW,211,0.0,0.0,94,0.00,,,0.00,Wunderground v.1.15,2013-01-21 13:15:00,
2013-01-21 08:20:00,29.6,28.1,30.09,SSW,211,0.0,0.0,94,0.00,,,0.00,Wunderground v.1.15,2013-01-21 13:20:00,
2013-01-21 08:30:00,30.1,28.8,30.08,SSW,211,0.0,0.0,95,0.00,,,0.00,Wunderground v.1.15,2013-01-21 13:30:00,
2013-01-21 08:35:00,30.4,29.1,30.08,SSW,211,0.0,0.0,95,0.00,,,0.00,Wunderground v.1.15,2013-01-21 13:35:00,
2013-01-21 08:40:00,30.8,29.5,30.08,SSW,211,0.0,0.0,95,0.00,,,0.00,Wunderground v.1.15,2013-01-21 13:40:00,
2013-01-21 08:45:00,31.3,30.0,30.08,SSW,211,0.0,0.0,95,0.00,,,0.00,Wunderground v.1.15,2013-01-21 13:45:00,
2013-01-21 08:50:00,31.7,30.4,30.08,SSW,211,0.0,0.0,95,0.00,,,0.00,Wunderground v.1.15,2013-01-21 13:50:00,
2013-01-21 09:00:00,32.5,31.2,30.08,SSW,211,0.0,0.0,95,0.00,,,0.00,Wunderground v.1.15,2013-01-21 14:00:00,
2013-01-21 09:05:00,32.9,31.6,30.09,SSW,211,0.0,0.0,95,0.00,,,0.00,Wunderground v.1.15,2013-01-21 14:05:00,
2013-01-21 09:10:00,33.4,32.1,30.09,SSW,211,0.0,0.0,95,0.00,,,0.00,Wunderground v.1.15,2013-01-21 14:10:00,
2013-01-21 09:15:00,33.9,32.6,30.09,SSW,211,0.0,0.0,95,0.00,,,0.00,Wunderground v.1.15,2013-01-21 14:15:00,
2013-01-21 09:20:00,34.7,33.2,30.09,SSW,211,0.0,0.0,94,0.00,,,0.00,Wunderground v.1.15,2013-01-21 14:20:00,
2013-01-21 09:25:00,35.5,33.1,30.08,ESE,109,0.0,2.0,91,0.00,,,0.00,Wunderground v.1.15,2013-01-21 14:25:00,
2013-01-21 09:30:00,39.0,31.4,30.08,ENE,77,1.0,1.0,74,0.00,,,0.00,Wunderground v.1.15,2013-01-21 14:30:00,
2013-01-21 09:35:00,41.4,33.7,30.08,East,80,1.0,1.0,74,0.00,,,0.00,Wunderground v.1.15,2013-01-21 14:35:00,
2013-01-21 09:40:00,43.3,31.5,30.08,East,82,0.0,0.0,63,0.00,,,0.01,Wunderground v.1.15,2013-01-21 14:40:00,
2013-01-21 09:45:00,44.6,30.7,30.08,ESE,123,1.0,1.0,58,0.11,,,0.02,Wunderground v.1.15,2013-01-21 14:45:00,
2013-01-21 09:50:00,45.6,30.3,30.09,NE,47,1.0,4.0,55,0.07,,,0.02,Wunderground v.1.15,2013-01-21 14:50:00,
2013-01-21 09:55:00,46.2,30.0,30.09,ESE,115,1.0,4.0,53,0.04,,,0.02,Wunderground v.1.15,2013-01-21 14:55:00,
2013-01-21 10:00:00,46.7,28.5,30.08,ENE,65,1.0,2.0,49,0.00,,,0.02,Wunderground v.1.15,2013-01-21 15:00:00,
2013-01-21 10:05:00,47.1,28.9,30.08,NE,40,1.0,2.0,49,0.00,,,0.02,Wunderground v.1.15,2013-01-21 15:05:00,
2013-01-21 10:10:00,47.4,29.2,30.08,East,86,1.0,2.0,49,0.00,,,0.02,Wunderground v.1.15,2013-01-21 15:10:00,
2013-01-21 10:15:00,47.6,27.8,30.08,East,96,2.0,2.0,46,0.00,,,0.02,Wunderground v.1.15,2013-01-21 15:15:00,
2013-01-21 10:20:00,47.9,28.1,30.08,NE,53,2.0,3.0,46,0.00,,,0.02,Wunderground v.1.15,2013-01-21 15:20:00,
2013-01-21 10:25:00,48.3,28.5,30.09,East,86,1.0,3.0,46,0.00,,,0.02,Wunderground v.1.15,2013-01-21 15:25:00,
2013-01-21 10:30:00,48.6,28.2,30.09,ESE,112,1.0,1.0,45,0.00,,,0.02,Wunderground v.1.15,2013-01-21 15:30:00,
2013-01-21 10:35:00,48.9,29.0,30.08,ESE,111,1.0,1.0,46,0.00,,,0.02,Wunderground v.1.15,2013-01-21 15:35:00,
2013-01-21 10:40:00,49.5,29.0,30.08,SE,136,1.0,2.0,45,0.00,,,0.03,Wunderground v.1.15,2013-01-21 15:40:00,
2013-01-21 10:45:00,49.8,29.3,30.08,SE,129,1.0,4.0,45,0.00,,,0.03,Wunderground v.1.15,2013-01-21 15:45:00,
2013-01-21 10:50:00,49.9,29.9,30.08,ENE,64,1.0,1.0,46,0.00,,,0.03,Wunderground v.1.15,2013-01-21 15:50:00,
2013-01-21 10:55:00,50.2,30.7,30.08,East,89,1.0,1.0,47,0.00,,,0.03,Wunderground v.1.15,2013-01-21 15:55:00,
2013-01-21 11:00:00,50.7,31.2,30.07,East,96,0.0,0.0,47,0.00,,,0.03,Wunderground v.1.15,2013-01-21 16:00:00,
2013-01-21 11:05:00,51.1,29.4,30.07,SE,136,1.0,1.0,43,0.00,,,0.03,Wunderground v.1.15,2013-01-21 16:05:00,
2013-01-21 11:10:00,51.5,29.7,30.07,SE,134,0.0,0.0,43,0.00,,,0.03,Wunderground v.1.15,2013-01-21 16:10:00,
2013-01-21 11:15:00,51.8,29.4,30.06,SSE,161,0.0,0.0,42,0.00,,,0.03,Wunderground v.1.15,2013-01-21 16:15:00,
2013-01-21 11:20:00,52.1,29.7,30.06,ESE,116,0.0,0.0,42,0.00,,,0.03,Wunderground v.1.15,2013-01-21 16:20:00,
2013-01-21 11:25:00,52.1,29.1,30.06,SSW,213,0.0,0.0,41,0.00,,,0.03,Wunderground v.1.15,2013-01-21 16:25:00,
2013-01-21 11:30:00,52.0,29.0,30.05,South,190,0.0,0.0,41,0.00,,,0.03,Wunderground v.1.15,2013-01-21 16:30:00,
2013-01-21 11:35:00,52.1,29.1,30.05,ESE,117,1.0,1.0,41,0.00,,,0.03,Wunderground v.1.15,2013-01-21 16:35:00,
2013-01-21 11:40:00,52.6,29.5,30.04,ESE,118,1.0,1.0,41,0.00,,,0.03,Wunderground v.1.15,2013-01-21 16:40:00,
2013-01-21 11:45:00,52.8,29.7,30.04,WNW,286,1.0,2.0,41,0.00,,,0.03,Wunderground v.1.15,2013-01-21 16:45:00,
2013-01-21 11:50:00,52.9,29.8,30.03,SSE,153,1.0,1.0,41,0.00,,,0.03,Wunderground v.1.15,2013-01-21 16:50:00,
2013-01-21 11:55:00,53.2,30.7,30.03,SSW,199,1.0,1.0,42,0.00,,,0.03,Wunderground v.1.15,2013-01-21 16:55:00,
2013-01-21 12:00:00,53.5,29.1,30.03,SSE,148,0.0,0.0,39,0.00,,,0.03,Wunderground v.1.15,2013-01-21 17:00:00,
2013-01-21 12:05:00,53.6,29.8,30.02,ESE,105,1.0,4.0,40,0.00,,,0.03,Wunderground v.1.15,2013-01-21 17:05:00,
2013-01-21 12:10:00,53.8,30.0,30.02,WSW,255,1.0,1.0,40,0.00,,,0.03,Wunderground v.1.15,2013-01-21 17:10:00,
2013-01-21 12:15:00,53.9,30.7,30.02,SSW,213,1.0,1.0,41,0.00,,,0.03,Wunderground v.1.15,2013-01-21 17:15:00,
2013-01-21 12:20:00,53.9,30.1,30.02,West,273,1.0,1.0,40,0.00,,,0.03,Wunderground v.1.15,2013-01-21 17:20:00,
2013-01-21 12:25:00,54.0,30.8,30.01,WNW,287,1.0,3.0,41,0.00,,,0.03,Wunderground v.1.15,2013-01-21 17:25:00,
2013-01-21 12:30:00,54.2,30.4,30.01,SSW,194,1.0,1.0,40,0.00,,,0.03,Wunderground v.1.15,2013-01-21 17:30:00,
2013-01-21 12:35:00,54.5,30.0,30.00,SSE,161,1.0,2.0,39,0.00,,,0.03,Wunderground v.1.15,2013-01-21 17:35:00,
2013-01-21 12:40:00,55.0,30.5,30.00,SSE,155,1.0,2.0,39,0.00,,,0.03,Wunderground v.1.15,2013-01-21 17:40:00,
2013-01-21 12:45:00,55.1,29.9,30.00,WNW,292,2.0,3.0,38,0.00,,,0.03,Wunderground v.1.15,2013-01-21 17:45:00,
2013-01-21 12:50:00,55.0,31.1,29.99,West,281,2.0,2.0,40,0.00,,,0.03,Wunderground v.1.15,2013-01-21 17:50:00,
2013-01-21 12:55:00,55.2,31.3,29.99,South,180,1.0,2.0,40,0.00,,,0.03,Wunderground v.1.15,2013-01-21 17:55:00,
2013-01-21 13:00:00,55.2,30.7,29.98,NW,324,1.0,4.0,39,0.00,,,0.03,Wunderground v.1.15,2013-01-21 18:00:00,
2013-01-21 13:10:00,55.5,30.3,29.98,SW,223,0.0,0.0,38,0.00,,,0.03,Wunderground v.1.15,2013-01-21 18:10:00,
2013-01-21 13:20:00,55.9,30.0,29.97,WSW,239,2.0,2.0,37,0.00,,,0.03,Wunderground v.1.15,2013-01-21 18:20:00,
2013-01-21 13:30:00,56.0,29.4,29.96,West,273,1.0,1.0,36,0.00,,,0.03,Wunderground v.1.15,2013-01-21 18:30:00,
2013-01-21 13:40:00,56.3,29.0,29.95,WSW,240,3.0,4.0,35,0.00,,,0.03,Wunderground v.1.15,2013-01-21 18:40:00,
2013-01-21 13:45:00,56.6,29.9,29.95,SE,140,3.0,4.0,36,0.00,,,0.03,Wunderground v.1.15,2013-01-21 18:45:00,
2013-01-21 13:50:00,56.8,30.8,29.94,WSW,251,1.0,1.0,37,0.00,,,0.03,Wunderground v.1.15,2013-01-21 18:50:00,
2013-01-21 13:55:00,56.9,30.2,29.94,West,267,1.0,1.0,36,0.00,,,0.03,Wunderground v.1.15,2013-01-21 18:55:00,
2013-01-21 14:00:00,57.2,31.1,29.94,SW,215,1.0,5.0,37,0.00,,,0.03,Wunderground v.1.15,2013-01-21 19:00:00,
2013-01-21 14:05:00,57.5,30.0,29.93,SSE,155,1.0,5.0,35,0.00,,,0.03,Wunderground v.1.15,2013-01-21 19:05:00,
2013-01-21 14:10:00,57.7,29.5,29.93,SW,219,2.0,2.0,34,0.00,,,0.03,Wunderground v.1.15,2013-01-21 19:10:00,
2013-01-21 14:15:00,57.7,30.2,29.93,South,185,2.0,2.0,35,0.00,,,0.03,Wunderground v.1.15,2013-01-21 19:15:00,
2013-01-21 14:20:00,57.8,28.9,29.92,SSW,194,2.0,3.0,33,0.00,,,0.03,Wunderground v.1.15,2013-01-21 19:20:00,
2013-01-21 14:25:00,57.8,29.6,29.92,SSW,195,2.0,3.0,34,0.00,,,0.03,Wunderground v.1.15,2013-01-21 19:25:00,
2013-01-21 14:30:00,57.9,30.4,29.92,SSW,211,1.0,1.0,35,0.00,,,0.03,Wunderground v.1.15,2013-01-21 19:30:00,
2013-01-21 14:35:00,57.9,30.4,29.93,South,186,1.0,2.0,35,0.00,,,0.03,Wunderground v.1.15,2013-01-21 19:35:00,
2013-01-21 14:40:00,57.9,31.1,29.92,WSW,252,2.0,2.0,36,0.00,,,0.03,Wunderground v.1.15,2013-01-21 19:40:00,
2013-01-21 14:50:00,57.6,31.5,29.92,SW,230,3.0,3.0,37,0.00,,,0.03,Wunderground v.1.15,2013-01-21 19:50:00,
2013-01-21 14:55:00,57.7,30.9,29.92,SSE,167,2.0,3.0,36,0.00,,,0.03,Wunderground v.1.15,2013-01-21 19:55:00,
2013-01-21 15:00:00,57.8,32.3,29.92,West,265,1.0,2.0,38,0.00,,,0.03,Wunderground v.1.15,2013-01-21 20:00:00,
2013-01-21 15:05:00,57.8,31.7,29.91,SW,225,1.0,6.0,37,0.00,,,0.03,Wunderground v.1.15,2013-01-21 20:05:00,
2013-01-21 15:10:00,58.0,29.8,29.91,SW,235,2.0,2.0,34,0.00,,,0.03,Wunderground v.1.15,2013-01-21 20:10:00,
2013-01-21 15:20:00,57.8,29.6,29.91,South,188,2.0,2.0,34,0.00,,,0.03,Wunderground v.1.15,2013-01-21 20:20:00,
2013-01-21 15:25:00,57.6,29.4,29.90,SSW,213,3.0,5.0,34,0.00,,,0.03,Wunderground v.1.15,2013-01-21 20:25:00,
2013-01-21 15:30:00,57.6,31.5,29.91,WSW,238,2.0,6.0,37,0.00,,,0.03,Wunderground v.1.15,2013-01-21 20:30:00,
2013-01-21 15:40:00,57.7,30.2,29.90,NW,306,2.0,3.0,35,0.00,,,0.03,Wunderground v.1.15,2013-01-21 20:40:00,
2013-01-21 15:45:00,57.6,30.1,29.90,SSW,203,2.0,3.0,35,0.00,,,0.03,Wunderground v.1.15,2013-01-21 20:45:00,
2013-01-21 15:50:00,57.5,30.7,29.90,South,179,2.0,5.0,36,0.00,,,0.03,Wunderground v.1.15,2013-01-21 20:50:00,
2013-01-21 15:55:00,57.4,30.6,29.90,WNW,286,2.0,5.0,36,0.00,,,0.03,Wunderground v.1.15,2013-01-21 20:55:00,
2013-01-21 16:00:00,57.1,30.4,29.90,WSW,248,2.0,2.0,36,0.00,,,0.03,Wunderground v.1.15,2013-01-21 21:00:00,
2013-01-21 16:05:00,56.9,30.9,29.90,SSW,207,2.0,2.0,37,0.00,,,0.03,Wunderground v.1.15,2013-01-21 21:05:00,
2013-01-21 16:10:00,56.7,30.7,29.90,SSE,166,2.0,4.0,37,0.00,,,0.03,Wunderground v.1.15,2013-01-21 21:10:00,
2013-01-21 16:20:00,56.6,30.6,29.90,WSW,255,1.0,6.0,37,0.00,,,0.03,Wunderground v.1.15,2013-01-21 21:20:00,
2013-01-21 16:30:00,56.2,30.2,29.89,SSW,196,3.0,3.0,37,0.00,,,0.03,Wunderground v.1.15,2013-01-21 21:30:00,
2013-01-21 16:35:00,56.1,31.5,29.89,SSE,155,2.0,3.0,39,0.00,,,0.03,Wunderground v.1.15,2013-01-21 21:35:00,
2013-01-21 16:40:00,55.9,30.6,29.89,West,273,1.0,1.0,38,0.00,,,0.03,Wunderground v.1.15,2013-01-21 21:40:00,
2013-01-21 16:45:00,55.8,30.5,29.89,SSW,196,1.0,2.0,38,0.00,,,0.03,Wunderground v.1.15,2013-01-21 21:45:00,
2013-01-21 16:50:00,55.8,29.9,29.89,SSE,161,2.0,2.0,37,0.00,,,0.03,Wunderground v.1.15,2013-01-21 21:50:00,
2013-01-21 16:55:00,55.7,31.1,29.88,WSW,252,1.0,2.0,39,0.00,,,0.03,Wunderground v.1.15,2013-01-21 21:55:00,
2013-01-21 17:00:00,55.5,30.3,29.89,West,264,0.0,0.0,38,0.00,,,0.03,Wunderground v.1.15,2013-01-21 22:00:00,
2013-01-21 17:05:00,55.3,30.7,29.89,SSW,195,1.0,3.0,39,0.00,,,0.03,Wunderground v.1.15,2013-01-21 22:05:00,
2013-01-21 17:10:00,55.2,30.7,29.89,South,190,1.0,1.0,39,0.00,,,0.03,Wunderground v.1.15,2013-01-21 22:10:00,
2013-01-21 17:20:00,54.9,31.0,29.89,SW,232,0.0,0.0,40,0.00,,,0.03,Wunderground v.1.15,2013-01-21 22:20:00,
2013-01-21 17:25:00,54.6,30.7,29.89,SW,233,0.0,0.0,40,0.00,,,0.03,Wunderground v.1.15,2013-01-21 22:25:00,
2013-01-21 17:30:00,54.3,30.5,29.89,SW,233,0.0,0.0,40,0.00,,,0.03,Wunderground v.1.15,2013-01-21 22:30:00,
2013-01-21 17:35:00,54.1,30.3,29.89,SW,233,0.0,0.0,40,0.00,,,0.03,Wunderground v.1.15,2013-01-21 22:35:00,
2013-01-21 17:40:00,53.9,30.7,29.89,WSW,247,0.0,0.0,41,0.00,,,0.03,Wunderground v.1.15,2013-01-21 22:40:00,
2013-01-21 17:45:00,53.6,30.4,29.89,WSW,247,0.0,0.0,41,0.00,,,0.03,Wunderground v.1.15,2013-01-21 22:45:00,
2013-01-21 17:50:00,53.2,30.1,29.89,WSW,240,0.0,0.0,41,0.00,,,0.03,Wunderground v.1.15,2013-01-21 22:50:00,
2013-01-21 17:55:00,53.0,30.5,29.90,South,187,0.0,0.0,42,0.00,,,0.03,Wunderground v.1.15,2013-01-21 22:55:00,
2013-01-21 18:00:00,52.8,30.3,29.90,SW,216,0.0,0.0,42,0.00,,,0.03,Wunderground v.1.15,2013-01-21 23:00:00,
2013-01-21 18:05:00,52.6,30.1,29.90,SW,215,0.0,0.0,42,0.00,,,0.03,Wunderground v.1.15,2013-01-21 23:05:00,
2013-01-21 18:10:00,52.4,31.1,29.90,SW,215,0.0,0.0,44,0.00,,,0.03,Wunderground v.1.15,2013-01-21 23:10:00,
2013-01-21 18:15:00,52.1,30.8,29.90,SW,215,0.0,0.0,44,0.00,,,0.03,Wunderground v.1.15,2013-01-21 23:15:00,
2013-01-21 18:20:00,51.7,30.5,29.90,SW,223,0.0,0.0,44,0.00,,,0.03,Wunderground v.1.15,2013-01-21 23:20:00,
2013-01-21 18:25:00,51.3,30.7,29.90,WNW,291,0.0,0.0,45,0.00,,,0.03,Wunderground v.1.15,2013-01-21 23:25:00,
2013-01-21 18:30:00,50.7,32.2,29.91,WNW,291,0.0,0.0,49,0.00,,,0.03,Wunderground v.1.15,2013-01-21 23:30:00,
2013-01-21 18:35:00,50.2,31.2,29.91,WNW,294,0.0,0.0,48,0.00,,,0.03,Wunderground v.1.15,2013-01-21 23:35:00,
2013-01-21 18:40:00,49.7,31.3,29.91,WSW,246,0.0,1.0,49,0.00,,,0.03,Wunderground v.1.15,2013-01-21 23:40:00,
2013-01-21 18:45:00,49.5,31.1,29.92,SSW,212,0.0,1.0,49,0.00,,,0.03,Wunderground v.1.15,2013-01-21 23:45:00,
2013-01-21 18:50:00,49.5,30.1,29.92,West,280,1.0,5.0,47,0.00,,,0.03,Wunderground v.1.15,2013-01-21 23:50:00,
2013-01-21 18:55:00,49.6,29.6,29.92,WNW,286,1.0,5.0,46,0.00,,,0.03,Wunderground v.1.15,2013-01-21 23:55:00,
2013-01-21 19:00:00,49.9,29.4,29.92,WNW,286,1.0,1.0,45,0.00,,,0.03,Wunderground v.1.15,2013-01-22 00:00:00,
2013-01-21 19:05:00,50.0,28.4,29.92,West,262,0.0,3.0,43,0.00,,,0.03,Wunderground v.1.15,2013-01-22 00:05:00,
2013-01-21 19:10:00,50.0,27.2,29.92,SSW,207,1.0,2.0,41,0.00,,,0.03,Wunderground v.1.15,2013-01-22 00:10:00,
2013-01-21 19:15:00,50.0,26.6,29.93,WNW,296,2.0,3.0,40,0.00,,,0.03,Wunderground v.1.15,2013-01-22 00:15:00,
2013-01-21 19:20:00,49.8,25.8,29.93,WNW,294,2.0,2.0,39,0.00,,,0.03,Wunderground v.1.15,2013-01-22 00:20:00,
2013-01-21 19:30:00,49.6,23.7,29.93,West,276,1.0,1.0,36,0.00,,,0.03,Wunderground v.1.15,2013-01-22 00:30:00,
2013-01-21 19:35:00,49.5,24.3,29.93,West,272,2.0,2.0,37,0.00,,,0.03,Wunderground v.1.15,2013-01-22 00:35:00,
2013-01-21 19:40:00,49.4,24.8,29.93,SW,235,1.0,1.0,38,0.00,,,0.03,Wunderground v.1.15,2013-01-22 00:40:00,
2013-01-21 19:50:00,48.8,24.3,29.93,South,179,1.0,1.0,38,0.00,,,0.03,Wunderground v.1.15,2013-01-22 00:50:00,
2013-01-21 19:55:00,48.6,23.5,29.93,SSW,197,1.0,1.0,37,0.00,,,0.03,Wunderground v.1.15,2013-01-22 00:55:00,
2013-01-21 20:00:00,48.2,23.1,29.93,WSW,242,0.0,4.0,37,0.00,,,0.03,Wunderground v.1.15,2013-01-22 01:00:00,
2013-01-21 20:05:00,47.9,24.1,29.94,WSW,252,1.0,4.0,39,0.00,,,0.03,Wunderground v.1.15,2013-01-22 01:05:00,
2013-01-21 20:10:00,47.5,24.3,29.94,West,280,1.0,2.0,40,0.00,,,0.03,Wunderground v.1.15,2013-01-22 01:10:00,
2013-01-21 20:15:00,47.3,22.9,29.95,SW,221,1.0,2.0,38,0.00,,,0.03,Wunderground v.1.15,2013-01-22 01:15:00,
2013-01-21 20:20:00,47.1,23.4,29.95,SW,227,0.0,0.0,39,0.00,,,0.03,Wunderground v.1.15,2013-01-22 01:20:00,
2013-01-21 20:30:00,46.4,23.9,29.95,SSW,210,0.0,0.0,41,0.00,,,0.03,Wunderground v.1.15,2013-01-22 01:30:00,
2013-01-21 20:35:00,46.0,23.6,29.95,NW,304,1.0,2.0,41,0.00,,,0.03,Wunderground v.1.15,2013-01-22 01:35:00,
2013-01-21 20:40:00,46.1,23.7,29.95,WNW,284,1.0,1.0,41,0.00,,,0.03,Wunderground v.1.15,2013-01-22 01:40:00,
2013-01-21 20:50:00,46.0,23.0,29.96,SW,235,1.0,1.0,40,0.00,,,0.03,Wunderground v.1.15,2013-01-22 01:50:00,
2013-01-21 20:55:00,45.8,22.8,29.95,WNW,290,1.0,2.0,40,0.00,,,0.03,Wunderground v.1.15,2013-01-22 01:55:00,
2013-01-21 21:00:00,45.4,23.6,29.96,WNW,284,1.0,1.0,42,0.00,,,0.03,Wunderground v.1.15,2013-01-22 02:00:00,
2013-01-21 21:05:00,45.2,22.9,29.96,WNW,284,1.0,1.0,41,0.00,,,0.03,Wunderground v.1.15,2013-01-22 02:05:00,
2013-01-21 21:10:00,44.9,22.6,29.96,WNW,293,1.0,1.0,41,0.00,,,0.03,Wunderground v.1.15,2013-01-22 02:10:00,
2013-01-21 21:15:00,44.6,23.5,29.96,WNW,293,0.0,1.0,43,0.00,,,0.03,Wunderground v.1.15,2013-01-22 02:15:00,
2013-01-21 21:20:00,44.3,23.2,29.96,WNW,293,0.0,0.0,43,0.00,,,0.03,Wunderground v.1.15,2013-01-22 02:20:00,
2013-01-21 21:25:00,44.2,23.6,29.96,WNW,293,0.0,0.0,44,0.00,,,0.03,Wunderground v.1.15,2013-01-22 02:25:00,
2013-01-21 21:30:00,43.8,22.7,29.96,WNW,294,0.0,0.0,43,0.00,,,0.03,Wunderground v.1.15,2013-01-22 02:30:00,
2013-01-21 21:35:00,43.5,24.1,29.96,WNW,294,0.0,0.0,46,0.00,,,0.03,Wunderground v.1.15,2013-01-22 02:35:00,
2013-01-21 21:40:00,43.0,24.1,29.96,West,267,0.0,0.0,47,0.00,,,0.03,Wunderground v.1.15,2013-01-22 02:40:00,
2013-01-21 21:45:00,42.7,24.4,29.96,SW,214,0.0,0.0,48,0.00,,,0.03,Wunderground v.1.15,2013-01-22 02:45:00,
2013-01-21 21:50:00,42.4,23.1,29.97,WNW,288,1.0,1.0,46,0.00,,,0.03,Wunderground v.1.15,2013-01-22 02:50:00,
2013-01-21 21:55:00,42.4,22.5,29.97,WNW,291,0.0,1.0,45,0.00,,,0.03,Wunderground v.1.15,2013-01-22 02:55:00,
2013-01-21 22:00:00,42.3,22.4,29.97,WSW,240,0.0,0.0,45,0.00,,,0.03,Wunderground v.1.15,2013-01-22 03:00:00,
2013-01-21 22:05:00,42.1,22.8,29.97,WSW,240,0.0,0.0,46,0.00,,,0.03,Wunderground v.1.15,2013-01-22 03:05:00,
2013-01-21 22:10:00,42.0,22.7,29.97,WSW,240,0.0,0.0,46,0.00,,,0.03,Wunderground v.1.15,2013-01-22 03:10:00,
2013-01-21 22:15:00,41.8,21.5,29.97,WSW,240,0.0,0.0,44,0.00,,,0.03,Wunderground v.1.15,2013-01-22 03:15:00,
2013-01-21 22:20:00,41.7,21.9,29.97,SW,219,0.0,0.0,45,0.00,,,0.03,Wunderground v.1.15,2013-01-22 03:20:00,
2013-01-21 22:30:00,41.5,21.2,29.97,SW,219,0.0,0.0,44,0.00,,,0.03,Wunderground v.1.15,2013-01-22 03:30:00,
2013-01-21 22:35:00,41.3,19.9,29.98,SW,223,0.0,0.0,42,0.00,,,0.03,Wunderground v.1.15,2013-01-22 03:35:00,
2013-01-21 22:40:00,41.3,21.0,29.98,SW,223,0.0,0.0,44,0.00,,,0.03,Wunderground v.1.15,2013-01-22 03:40:00,
2013-01-21 22:45:00,41.1,20.8,29.98,West,275,0.0,0.0,44,0.00,,,0.03,Wunderground v.1.15,2013-01-22 03:45:00,
2013-01-21 22:50:00,40.9,20.6,29.98,WSW,257,0.0,0.0,44,0.00,,,0.03,Wunderground v.1.15,2013-01-22 03:50:00,
2013-01-21 22:55:00,40.6,20.4,29.98,West,260,0.0,0.0,44,0.00,,,0.03,Wunderground v.1.15,2013-01-22 03:55:00,
2013-01-21 23:00:00,40.4,21.2,29.97,West,261,0.0,0.0,46,0.00,,,0.03,Wunderground v.1.15,2013-01-22 04:00:00,
2013-01-21 23:05:00,40.1,22.4,29.97,NW,323,0.0,0.0,49,0.00,,,0.03,Wunderground v.1.15,2013-01-22 04:05:00,
2013-01-21 23:10:00,39.8,20.7,29.97,West,273,0.0,0.0,46,0.00,,,0.03,Wunderground v.1.15,2013-01-22 04:10:00,
2013-01-21 23:15:00,39.7,21.1,29.97,WSW,249,0.0,0.0,47,0.00,,,0.03,Wunderground v.1.15,2013-01-22 04:15:00,
2013-01-21 23:20:00,40.2,20.5,29.97,WSW,244,1.0,1.0,45,0.00,,,0.03,Wunderground v.1.15,2013-01-22 04:20:00,
2013-01-21 23:25:00,40.2,20.5,29.98,West,277,1.0,1.0,45,0.00,,,0.03,Wunderground v.1.15,2013-01-22 04:25:00,
2013-01-21 23:30:00,40.2,20.5,29.98,SW,236,0.0,1.0,45,0.00,,,0.03,Wunderground v.1.15,2013-01-22 04:30:00,
2013-01-21 23:35:00,40.3,19.5,29.98,WNW,283,0.0,1.0,43,0.00,,,0.03,Wunderground v.1.15,2013-01-22 04:35:00,
2013-01-21 23:40:00,40.4,20.7,29.98,SW,236,1.0,1.0,45,0.00,,,0.03,Wunderground v.1.15,2013-01-22 04:40:00,
2013-01-21 23:50:00,40.8,18.9,29.98,NW,307,1.0,3.0,41,0.00,,,0.03,Wunderground v.1.15,2013-01-22 04:50:00,